Zurück zum Katalog

STARLINK-30511

AktivKommunikationVLEO
NORAD 57978·PAYLOAD·🇺🇸 United States

Gestartet Sep 30, 2023 von Cape Canaveral Space Force Station

Loading…

Nächste Überflüge (nächste 24 Stunden)

TLE

AktuellSource: CelesTrak SupGP

Epoche: Sep 14, 2026, 14:53 UTC

1 57978C 23151Q   26257.62062500  .00023598  00000+0  85495-3 0  2578
2 57978  43.0029   3.7804 0001405 273.8783 210.2765 15.27557133    19

Verfolge STARLINK-30511 in Echtzeit mit AllMySat

Download on the App Store